Year,Month,Day,Hour,Minute,Value (Times are PST for temperature in C)
2014,04,13,00,00,7.30
2014,04,13,00,01,7.30
2014,04,13,00,02,7.20
2014,04,13,00,03,7.20
2014,04,13,00,04,7.20
2014,04,13,00,05,7.20
2014,04,13,00,06,7.20
2014,04,13,00,07,7.20
2014,04,13,00,08,7.20
2014,04,13,00,09,7.20
2014,04,13,00,10,7.20
2014,04,13,00,11,7.20
2014,04,13,00,12,7.20
2014,04,13,00,13,7.20
2014,04,13,00,14,7.10
2014,04,13,00,15,7.10
2014,04,13,00,16,7.10
2014,04,13,00,17,7.00
2014,04,13,00,18,7.00
2014,04,13,00,19,6.90
2014,04,13,00,20,6.90
2014,04,13,00,21,6.90
2014,04,13,00,22,6.80
2014,04,13,00,23,6.80
2014,04,13,00,24,6.80
2014,04,13,00,25,6.80
2014,04,13,00,26,6.70
2014,04,13,00,27,6.70
2014,04,13,00,28,6.70
2014,04,13,00,29,6.70
2014,04,13,00,30,6.70
2014,04,13,00,31,6.70
2014,04,13,00,32,6.70
2014,04,13,00,33,6.70
2014,04,13,00,34,6.70
2014,04,13,00,35,6.60
2014,04,13,00,36,6.60
2014,04,13,00,37,6.60
2014,04,13,00,38,6.60
2014,04,13,00,39,6.60
2014,04,13,00,40,6.60
2014,04,13,00,41,6.60
2014,04,13,00,42,6.60
2014,04,13,00,43,6.60
2014,04,13,00,44,6.60
2014,04,13,00,45,6.50
2014,04,13,00,46,6.50
2014,04,13,00,47,6.50
2014,04,13,00,48,6.50
2014,04,13,00,49,6.50
2014,04,13,00,50,6.50
2014,04,13,00,51,6.40
2014,04,13,00,52,6.40
2014,04,13,00,53,6.40
2014,04,13,00,54,6.40
2014,04,13,00,55,6.40
2014,04,13,00,56,6.40
2014,04,13,00,57,6.40
2014,04,13,00,58,6.40
2014,04,13,00,59,6.40
2014,04,13,01,00,6.30
2014,04,13,01,01,6.30
2014,04,13,01,02,6.30
2014,04,13,01,03,6.30
2014,04,13,01,04,6.30
2014,04,13,01,05,6.30
2014,04,13,01,06,6.30
2014,04,13,01,07,6.30
2014,04,13,01,08,6.30
2014,04,13,01,09,6.20
2014,04,13,01,10,6.20
2014,04,13,01,11,6.20
2014,04,13,01,12,6.20
2014,04,13,01,13,6.10
2014,04,13,01,14,6.10
2014,04,13,01,15,6.10
2014,04,13,01,16,6.10
2014,04,13,01,17,6.10
2014,04,13,01,18,6.00
2014,04,13,01,19,6.00
2014,04,13,01,20,6.00
2014,04,13,01,21,5.90
2014,04,13,01,22,5.90
2014,04,13,01,23,5.90
2014,04,13,01,24,5.90
2014,04,13,01,25,5.80
2014,04,13,01,26,5.80
2014,04,13,01,27,5.80
2014,04,13,01,28,5.80
2014,04,13,01,29,5.80
2014,04,13,01,30,5.70
2014,04,13,01,31,5.70
2014,04,13,01,32,5.70
2014,04,13,01,33,5.70
2014,04,13,01,34,5.70
2014,04,13,01,35,5.70
2014,04,13,01,36,5.60
2014,04,13,01,37,5.60
2014,04,13,01,38,5.60
2014,04,13,01,39,5.60
2014,04,13,01,40,5.60
2014,04,13,01,41,5.60
2014,04,13,01,42,5.60
2014,04,13,01,43,5.50
2014,04,13,01,44,5.50
2014,04,13,01,45,5.50
2014,04,13,01,46,5.50
2014,04,13,01,47,5.50
2014,04,13,01,48,5.50
2014,04,13,01,49,5.50
2014,04,13,01,50,5.50
2014,04,13,01,51,5.50
2014,04,13,01,52,5.50
2014,04,13,01,53,5.50
2014,04,13,01,54,5.50
2014,04,13,01,55,5.50
2014,04,13,01,56,5.50
2014,04,13,01,57,5.50
2014,04,13,01,58,5.60
2014,04,13,01,59,5.60
2014,04,13,02,00,5.60
2014,04,13,02,01,5.60
2014,04,13,02,02,5.60
2014,04,13,02,03,5.60
2014,04,13,02,04,5.60
2014,04,13,02,05,5.60
2014,04,13,02,06,5.70
2014,04,13,02,07,5.70
2014,04,13,02,08,5.70
2014,04,13,02,09,5.70
2014,04,13,02,10,5.70
2014,04,13,02,11,5.60
2014,04,13,02,12,5.60
2014,04,13,02,13,5.60
2014,04,13,02,14,5.60
2014,04,13,02,15,5.60
2014,04,13,02,16,5.60
2014,04,13,02,17,5.60
2014,04,13,02,18,5.60
2014,04,13,02,19,5.50
2014,04,13,02,20,5.50
2014,04,13,02,21,5.50
2014,04,13,02,22,5.40
2014,04,13,02,23,5.40
2014,04,13,02,24,5.40
2014,04,13,02,25,5.30
2014,04,13,02,26,5.30
2014,04,13,02,27,5.30
2014,04,13,02,28,5.30
2014,04,13,02,29,5.20
2014,04,13,02,30,5.20
2014,04,13,02,31,5.20
2014,04,13,02,32,5.10
2014,04,13,02,33,5.10
2014,04,13,02,34,5.10
2014,04,13,02,35,5.00
2014,04,13,02,36,5.00
2014,04,13,02,37,5.00
2014,04,13,02,38,4.90
2014,04,13,02,39,4.90
2014,04,13,02,40,4.90
2014,04,13,02,41,4.90
2014,04,13,02,42,4.90
2014,04,13,02,43,4.90
2014,04,13,02,44,4.90
2014,04,13,02,45,4.90
2014,04,13,02,46,4.80
2014,04,13,02,47,4.80
2014,04,13,02,48,4.80
2014,04,13,02,49,4.80
2014,04,13,02,50,4.80
2014,04,13,02,51,4.80
2014,04,13,02,52,4.80
2014,04,13,02,53,4.80
2014,04,13,02,54,4.80
2014,04,13,02,55,4.80
2014,04,13,02,56,4.80
2014,04,13,02,57,4.70
2014,04,13,02,58,4.70
2014,04,13,02,59,4.70
2014,04,13,03,00,4.70
2014,04,13,03,01,4.70
2014,04,13,03,02,4.70
2014,04,13,03,03,4.70
2014,04,13,03,06,4.70
2014,04,13,03,07,4.70
2014,04,13,03,08,4.70
2014,04,13,03,09,4.70
2014,04,13,03,10,4.70
2014,04,13,03,11,4.60
2014,04,13,03,12,4.60
2014,04,13,03,13,4.60
2014,04,13,03,14,4.60
2014,04,13,03,15,4.50
2014,04,13,03,16,4.50
2014,04,13,03,17,4.50
2014,04,13,03,18,4.50
2014,04,13,03,19,4.40
2014,04,13,03,20,4.40
2014,04,13,03,21,4.40
2014,04,13,03,22,4.40
2014,04,13,03,23,4.40
2014,04,13,03,24,4.40
2014,04,13,03,25,4.40
2014,04,13,03,26,4.30
2014,04,13,03,27,4.30
2014,04,13,03,28,4.30
2014,04,13,03,29,4.30
2014,04,13,03,30,4.30
2014,04,13,03,31,4.20
2014,04,13,03,32,4.20
2014,04,13,03,33,4.20
2014,04,13,03,34,4.20
2014,04,13,03,35,4.20
2014,04,13,03,36,4.20
2014,04,13,03,37,4.10
2014,04,13,03,38,4.10
2014,04,13,03,39,4.10
2014,04,13,03,40,4.10
2014,04,13,03,41,4.10
2014,04,13,03,42,4.10
2014,04,13,03,43,4.10
2014,04,13,03,44,4.10
2014,04,13,03,45,4.10
2014,04,13,03,46,4.10
2014,04,13,03,47,4.10
2014,04,13,03,48,4.00
2014,04,13,03,49,4.00
2014,04,13,03,50,4.00
2014,04,13,03,51,4.00
2014,04,13,03,52,3.90
2014,04,13,03,53,3.90
2014,04,13,03,54,3.90
2014,04,13,03,55,3.90
2014,04,13,03,56,3.90
2014,04,13,03,57,3.90
2014,04,13,03,58,3.90
2014,04,13,03,59,3.80
2014,04,13,04,00,3.80
2014,04,13,04,01,3.80
2014,04,13,04,02,3.80
2014,04,13,04,03,3.80
2014,04,13,04,04,3.70
2014,04,13,04,05,3.70
2014,04,13,04,06,3.70
2014,04,13,04,07,3.70
2014,04,13,04,08,3.70
2014,04,13,04,09,3.70
2014,04,13,04,10,3.70
2014,04,13,04,11,3.60
2014,04,13,04,12,3.60
2014,04,13,04,13,3.60
2014,04,13,04,14,3.60
2014,04,13,04,15,3.60
2014,04,13,04,16,3.60
2014,04,13,04,17,3.60
2014,04,13,04,18,3.50
2014,04,13,04,19,3.50
2014,04,13,04,20,3.50
2014,04,13,04,21,3.50
2014,04,13,04,22,3.50
2014,04,13,04,23,3.50
2014,04,13,04,24,3.40
2014,04,13,04,25,3.40
2014,04,13,04,26,3.40
2014,04,13,04,27,3.40
2014,04,13,04,28,3.40
2014,04,13,04,29,3.50
2014,04,13,04,30,3.50
2014,04,13,04,31,3.50
2014,04,13,04,32,3.50
2014,04,13,04,33,3.50
2014,04,13,04,34,3.60
2014,04,13,04,35,3.60
2014,04,13,04,36,3.60
2014,04,13,04,37,3.60
2014,04,13,04,38,3.60
2014,04,13,04,39,3.60
2014,04,13,04,40,3.60
2014,04,13,04,41,3.60
2014,04,13,04,42,3.50
2014,04,13,04,43,3.50
2014,04,13,04,44,3.50
2014,04,13,04,45,3.40
2014,04,13,04,46,3.40
2014,04,13,04,47,3.40
2014,04,13,04,48,3.30
2014,04,13,04,49,3.30
2014,04,13,04,50,3.30
2014,04,13,04,51,3.30
2014,04,13,04,52,3.30
2014,04,13,04,53,3.30
2014,04,13,04,54,3.30
2014,04,13,04,55,3.30
2014,04,13,04,56,3.30
2014,04,13,04,57,3.20
2014,04,13,04,58,3.20
2014,04,13,04,59,3.20
2014,04,13,05,00,3.20
2014,04,13,05,01,3.20
2014,04,13,05,02,3.20
2014,04,13,05,03,3.20
2014,04,13,05,04,3.20
2014,04,13,05,05,3.30
2014,04,13,05,06,3.30
2014,04,13,05,07,3.30
2014,04,13,05,08,3.30
2014,04,13,05,09,3.30
2014,04,13,05,10,3.30
2014,04,13,05,11,3.30
2014,04,13,05,12,3.30
2014,04,13,05,13,3.30
2014,04,13,05,14,3.30
2014,04,13,05,15,3.40
2014,04,13,05,16,3.40
2014,04,13,05,17,3.40
2014,04,13,05,18,3.40
2014,04,13,05,19,3.40
2014,04,13,05,20,3.50
2014,04,13,05,21,3.50
2014,04,13,05,22,3.60
2014,04,13,05,23,3.60
2014,04,13,05,24,3.60
2014,04,13,05,25,3.60
2014,04,13,05,26,3.60
2014,04,13,05,27,3.60
2014,04,13,05,28,3.60
2014,04,13,05,29,3.60
2014,04,13,05,30,3.60
2014,04,13,05,31,3.60
2014,04,13,05,32,3.60
2014,04,13,05,33,3.60
2014,04,13,05,34,3.60
2014,04,13,05,35,3.50
2014,04,13,05,36,3.50
2014,04,13,05,37,3.50
2014,04,13,05,38,3.50
2014,04,13,05,39,3.40
2014,04,13,05,40,3.40
2014,04,13,05,41,3.40
2014,04,13,05,42,3.40
2014,04,13,05,43,3.40
2014,04,13,05,44,3.30
2014,04,13,05,45,3.30
2014,04,13,05,46,3.30
2014,04,13,05,47,3.30
2014,04,13,05,48,3.30
2014,04,13,05,49,3.20
2014,04,13,05,50,3.20
2014,04,13,05,51,3.20
2014,04,13,05,52,3.20
2014,04,13,05,53,3.20
2014,04,13,05,54,3.20
2014,04,13,05,55,3.10
2014,04,13,05,56,3.10
2014,04,13,05,57,3.10
2014,04,13,05,58,3.00
2014,04,13,05,59,3.00
2014,04,13,06,00,3.00
2014,04,13,06,01,2.90
2014,04,13,06,02,2.90
2014,04,13,06,03,2.90
2014,04,13,06,04,2.80
2014,04,13,06,05,2.80
2014,04,13,06,06,2.80
2014,04,13,06,07,2.80
2014,04,13,06,08,2.80
2014,04,13,06,09,2.80
2014,04,13,06,10,2.80
2014,04,13,06,11,2.80
2014,04,13,06,12,2.80
2014,04,13,06,13,2.80
2014,04,13,06,14,2.80
2014,04,13,06,15,2.80
2014,04,13,06,16,2.80
2014,04,13,06,17,2.80
2014,04,13,06,18,2.70
2014,04,13,06,19,2.70
2014,04,13,06,20,2.70
2014,04,13,06,21,2.70
2014,04,13,06,22,2.70
2014,04,13,06,23,2.70
2014,04,13,06,24,2.70
2014,04,13,06,25,2.70
2014,04,13,06,26,2.70
2014,04,13,06,27,2.60
2014,04,13,06,28,2.60
2014,04,13,06,29,2.60
2014,04,13,06,30,2.60
2014,04,13,06,31,2.60
2014,04,13,06,32,2.60
2014,04,13,06,33,2.60
2014,04,13,06,34,2.60
2014,04,13,06,35,2.60
2014,04,13,06,36,2.60
2014,04,13,06,37,2.60
2014,04,13,06,38,2.60
2014,04,13,06,39,2.50
2014,04,13,06,40,2.50
2014,04,13,06,41,2.50
2014,04,13,06,42,2.50
2014,04,13,06,43,2.60
2014,04,13,06,44,2.60
2014,04,13,06,45,2.60
2014,04,13,06,46,2.60
2014,04,13,06,47,2.60
2014,04,13,06,48,2.60
2014,04,13,06,49,2.60
2014,04,13,06,50,2.60
2014,04,13,06,51,2.60
2014,04,13,06,52,2.60
2014,04,13,06,53,2.60
2014,04,13,06,54,2.60
2014,04,13,06,55,2.70
2014,04,13,06,56,2.70
2014,04,13,06,57,2.70
2014,04,13,06,58,2.70
2014,04,13,06,59,2.70
2014,04,13,07,00,2.70
2014,04,13,07,01,2.70
2014,04,13,07,02,2.70
2014,04,13,07,03,2.70
2014,04,13,07,04,2.60
2014,04,13,07,05,2.60
2014,04,13,07,06,2.60
2014,04,13,07,07,2.60
2014,04,13,07,08,2.60
2014,04,13,07,09,2.60
2014,04,13,07,10,2.60
2014,04,13,07,11,2.60
2014,04,13,07,12,2.60
2014,04,13,07,13,2.60
2014,04,13,07,14,2.60
2014,04,13,07,15,2.60
2014,04,13,07,16,2.60
2014,04,13,07,17,2.60
2014,04,13,07,18,2.60
2014,04,13,07,19,2.60
2014,04,13,07,20,2.60
2014,04,13,07,21,2.70
2014,04,13,07,22,2.70
2014,04,13,07,23,2.70
2014,04,13,07,24,2.70
2014,04,13,07,25,2.70
2014,04,13,07,26,2.70
2014,04,13,07,27,2.70
2014,04,13,07,28,2.70
2014,04,13,07,29,2.70
2014,04,13,07,30,2.70
2014,04,13,07,31,2.70
2014,04,13,07,32,2.70
2014,04,13,07,33,2.70
2014,04,13,07,34,2.70
2014,04,13,07,35,2.70
2014,04,13,07,36,2.70
2014,04,13,07,37,2.70
2014,04,13,07,38,2.70
2014,04,13,07,39,2.70
2014,04,13,07,40,2.70
2014,04,13,07,41,2.70
2014,04,13,07,42,2.70
2014,04,13,07,43,2.70
2014,04,13,07,44,2.70
2014,04,13,07,45,2.70
2014,04,13,07,46,2.70
2014,04,13,07,47,2.70
2014,04,13,07,48,2.80
2014,04,13,07,49,2.80
2014,04,13,07,50,2.80
2014,04,13,07,51,2.90
2014,04,13,07,52,2.90
2014,04,13,07,53,3.00
2014,04,13,07,54,3.00
2014,04,13,07,55,3.10
2014,04,13,07,56,3.10
2014,04,13,07,57,3.20
2014,04,13,07,58,3.30
2014,04,13,07,59,3.40
2014,04,13,08,00,3.50
2014,04,13,08,01,3.50
2014,04,13,08,02,3.60
2014,04,13,08,03,3.70
2014,04,13,08,04,3.80
2014,04,13,08,05,3.90
2014,04,13,08,06,3.90
2014,04,13,08,07,4.00
2014,04,13,08,08,4.10
2014,04,13,08,09,4.10
2014,04,13,08,10,4.20
2014,04,13,08,11,4.30
2014,04,13,08,12,4.30
2014,04,13,08,13,4.40
2014,04,13,08,14,4.50
2014,04,13,08,15,4.60
2014,04,13,08,16,4.60
2014,04,13,08,17,4.70
2014,04,13,08,18,4.80
2014,04,13,08,19,4.90
2014,04,13,08,20,4.90
2014,04,13,08,21,4.90
2014,04,13,08,22,4.90
2014,04,13,08,23,4.90
2014,04,13,08,24,4.90
2014,04,13,08,25,4.90
2014,04,13,08,26,4.80
2014,04,13,08,27,4.80
2014,04,13,08,28,4.80
2014,04,13,08,29,4.80
2014,04,13,08,30,4.80
2014,04,13,08,31,4.80
2014,04,13,08,32,4.80
2014,04,13,08,33,4.90
2014,04,13,08,34,4.90
2014,04,13,08,35,4.90
2014,04,13,08,36,5.00
2014,04,13,08,37,5.00
2014,04,13,08,38,5.00
2014,04,13,08,39,5.10
2014,04,13,08,40,5.10
2014,04,13,08,41,5.20
2014,04,13,08,42,5.20
2014,04,13,08,43,5.20
2014,04,13,08,44,5.20
2014,04,13,08,45,5.20
2014,04,13,08,46,5.20
2014,04,13,08,47,5.20
2014,04,13,08,48,5.30
2014,04,13,08,49,5.30
2014,04,13,08,50,5.30
2014,04,13,08,51,5.30
2014,04,13,08,52,5.30
2014,04,13,08,53,5.40
2014,04,13,08,54,5.40
2014,04,13,08,55,5.50
2014,04,13,08,56,5.50
2014,04,13,08,57,5.60
2014,04,13,08,58,5.60
2014,04,13,08,59,5.70
2014,04,13,09,00,5.70
2014,04,13,09,01,5.80
2014,04,13,09,02,5.80
2014,04,13,09,03,5.90
2014,04,13,09,04,5.90
2014,04,13,09,05,5.90
2014,04,13,09,06,6.00
2014,04,13,09,07,6.00
2014,04,13,09,08,6.10
2014,04,13,09,09,6.10
2014,04,13,09,10,6.20
2014,04,13,09,11,6.20
2014,04,13,09,12,6.30
2014,04,13,09,13,6.30
2014,04,13,09,14,6.30
2014,04,13,09,15,6.40
2014,04,13,09,16,6.50
2014,04,13,09,17,6.70
2014,04,13,09,18,6.70
2014,04,13,09,19,6.70
2014,04,13,09,20,6.80
2014,04,13,09,21,6.80
2014,04,13,09,22,6.80
2014,04,13,09,23,6.70
2014,04,13,09,24,6.70
2014,04,13,09,25,6.70
2014,04,13,09,26,6.70
2014,04,13,09,27,6.70
2014,04,13,09,28,6.70
2014,04,13,09,29,6.80
2014,04,13,09,30,6.80
2014,04,13,09,31,6.80
2014,04,13,09,32,6.80
2014,04,13,09,33,6.80
2014,04,13,09,34,6.80
2014,04,13,09,35,6.80
2014,04,13,09,36,6.80
2014,04,13,09,37,6.90
2014,04,13,09,38,6.90
2014,04,13,09,39,7.00
2014,04,13,09,40,7.10
2014,04,13,09,41,7.20
2014,04,13,09,42,7.20
2014,04,13,09,43,7.30
2014,04,13,09,44,7.30
2014,04,13,09,45,7.40
2014,04,13,09,46,7.40
2014,04,13,09,47,7.50
2014,04,13,09,48,7.60
2014,04,13,09,49,7.80
2014,04,13,09,50,7.80
2014,04,13,09,51,7.90
2014,04,13,09,52,8.00
2014,04,13,09,53,8.00
2014,04,13,09,54,8.10
2014,04,13,09,55,8.10
2014,04,13,09,56,8.10
2014,04,13,09,57,8.10
2014,04,13,09,58,8.10
2014,04,13,09,59,8.10
2014,04,13,10,00,8.20
2014,04,13,10,01,8.30
2014,04,13,10,02,8.30
2014,04,13,10,03,8.40
2014,04,13,10,04,8.50
2014,04,13,10,05,8.50
2014,04,13,10,06,8.60
2014,04,13,10,07,8.60
2014,04,13,10,08,8.70
2014,04,13,10,09,8.70
2014,04,13,10,10,8.80
2014,04,13,10,11,8.80
2014,04,13,10,12,8.90
2014,04,13,10,13,9.00
2014,04,13,10,14,9.00
2014,04,13,10,15,9.10
2014,04,13,10,16,9.10
2014,04,13,10,17,9.20
2014,04,13,10,18,9.30
2014,04,13,10,19,9.40
2014,04,13,10,20,9.50
2014,04,13,10,21,9.60
2014,04,13,10,22,9.60
2014,04,13,10,23,9.70
2014,04,13,10,24,9.70
2014,04,13,10,25,9.70
2014,04,13,10,26,9.70
2014,04,13,10,27,9.70
2014,04,13,10,28,9.70
2014,04,13,10,29,9.80
2014,04,13,10,30,9.80
2014,04,13,10,31,9.80
2014,04,13,10,32,9.80
2014,04,13,10,33,9.90
2014,04,13,10,34,9.90
2014,04,13,10,35,9.90
2014,04,13,10,36,10.00
2014,04,13,10,37,10.00
2014,04,13,10,38,10.10
2014,04,13,10,39,10.20
2014,04,13,10,40,10.30
2014,04,13,10,41,10.30
2014,04,13,10,42,10.40
2014,04,13,10,43,10.40
2014,04,13,10,44,10.50
2014,04,13,10,45,10.60
2014,04,13,10,46,10.60
2014,04,13,10,47,10.70
2014,04,13,10,48,10.70
2014,04,13,10,49,10.80
2014,04,13,10,50,10.80
2014,04,13,10,51,10.80
2014,04,13,10,52,10.90
2014,04,13,10,53,10.90
2014,04,13,10,54,11.00
2014,04,13,10,55,11.00
2014,04,13,10,56,11.10
2014,04,13,10,57,11.20
2014,04,13,10,58,11.30
2014,04,13,10,59,11.40
2014,04,13,11,00,11.40
2014,04,13,11,01,11.40
2014,04,13,11,02,11.40
2014,04,13,11,03,11.40
2014,04,13,11,04,11.40
2014,04,13,11,05,11.40
2014,04,13,11,06,11.40
2014,04,13,11,07,11.40
2014,04,13,11,08,11.50
2014,04,13,11,09,11.50
2014,04,13,11,10,11.60
2014,04,13,11,11,11.60
2014,04,13,11,12,11.70
2014,04,13,11,13,11.80
2014,04,13,11,14,11.80
2014,04,13,11,15,11.90
2014,04,13,11,16,12.00
2014,04,13,11,17,12.00
2014,04,13,11,18,12.10
2014,04,13,11,19,12.10
2014,04,13,11,20,12.10
2014,04,13,11,21,12.20
2014,04,13,11,22,12.20
2014,04,13,11,23,12.20
2014,04,13,11,24,12.30
2014,04,13,11,25,12.30
2014,04,13,11,26,12.40
2014,04,13,11,27,12.50
2014,04,13,11,28,12.50
2014,04,13,11,29,12.70
2014,04,13,11,30,12.80
2014,04,13,11,31,12.90
2014,04,13,11,32,13.00
2014,04,13,11,33,13.10
2014,04,13,11,34,13.10
2014,04,13,11,35,13.20
2014,04,13,11,36,13.30
2014,04,13,11,37,13.40
2014,04,13,11,38,13.50
2014,04,13,11,39,13.50
2014,04,13,11,40,13.60
2014,04,13,11,41,13.60
2014,04,13,11,42,13.60
2014,04,13,11,43,13.50
2014,04,13,11,44,13.40
2014,04,13,11,45,13.40
2014,04,13,11,46,13.40
2014,04,13,11,47,13.40
2014,04,13,11,48,13.60
2014,04,13,11,49,13.70
2014,04,13,11,50,13.80
2014,04,13,11,51,13.90
2014,04,13,11,52,13.90
2014,04,13,11,53,13.90
2014,04,13,11,54,13.90
2014,04,13,11,55,13.90
2014,04,13,11,56,13.90
2014,04,13,11,57,13.90
2014,04,13,11,58,13.90
2014,04,13,11,59,13.80
2014,04,13,12,00,13.80
2014,04,13,12,01,13.80
2014,04,13,12,02,13.80
2014,04,13,12,03,13.80
2014,04,13,12,04,13.80
2014,04,13,12,05,13.80
2014,04,13,12,06,13.90
2014,04,13,12,07,13.90
2014,04,13,12,08,14.00
2014,04,13,12,09,14.00
2014,04,13,12,10,14.10
2014,04,13,12,11,14.20
2014,04,13,12,12,14.30
2014,04,13,12,13,14.40
2014,04,13,12,14,14.50
2014,04,13,12,15,14.50
2014,04,13,12,16,14.60
2014,04,13,12,17,14.70
2014,04,13,12,18,14.70
2014,04,13,12,19,14.80
2014,04,13,12,20,14.80
2014,04,13,12,21,14.90
2014,04,13,12,22,15.00
2014,04,13,12,23,15.10
2014,04,13,12,24,15.10
2014,04,13,12,25,15.20
2014,04,13,12,26,15.30
2014,04,13,12,27,15.40
2014,04,13,12,28,15.50
2014,04,13,12,29,15.60
2014,04,13,12,30,15.60
2014,04,13,12,31,15.70
2014,04,13,12,32,15.70
2014,04,13,12,33,15.70
2014,04,13,12,34,15.70
2014,04,13,12,35,15.70
2014,04,13,12,36,15.60
2014,04,13,12,37,15.50
2014,04,13,12,38,15.50
2014,04,13,12,39,15.50
2014,04,13,12,40,15.50
2014,04,13,12,41,15.40
2014,04,13,12,42,15.50
2014,04,13,12,43,15.60
2014,04,13,12,44,15.60
2014,04,13,12,45,15.80
2014,04,13,12,46,15.90
2014,04,13,12,47,16.00
2014,04,13,12,48,16.10
2014,04,13,12,49,16.20
2014,04,13,12,50,16.20
2014,04,13,12,51,16.10
2014,04,13,12,52,16.00
2014,04,13,12,53,16.00
2014,04,13,12,54,15.90
2014,04,13,12,55,15.90
2014,04,13,12,56,15.90
2014,04,13,12,57,15.90
2014,04,13,12,58,16.00
2014,04,13,12,59,16.10
2014,04,13,13,00,16.30
2014,04,13,13,01,16.50
2014,04,13,13,02,16.70
2014,04,13,13,03,16.80
2014,04,13,13,04,16.80
2014,04,13,13,05,16.90
2014,04,13,13,06,16.90
2014,04,13,13,07,16.90
2014,04,13,13,08,16.90
2014,04,13,13,09,16.90
2014,04,13,13,10,16.90
2014,04,13,13,11,16.90
2014,04,13,13,12,17.00
2014,04,13,13,13,17.00
2014,04,13,13,14,17.20
2014,04,13,13,15,17.20
2014,04,13,13,16,17.30
2014,04,13,13,17,17.30
2014,04,13,13,18,17.30
2014,04,13,13,19,17.30
2014,04,13,13,20,17.40
2014,04,13,13,21,17.40
2014,04,13,13,22,17.50
2014,04,13,13,23,17.60
2014,04,13,13,24,17.60
2014,04,13,13,25,17.70
2014,04,13,13,26,17.70
2014,04,13,13,27,17.80
2014,04,13,13,28,17.80
2014,04,13,13,29,17.80
2014,04,13,13,30,17.80
2014,04,13,13,31,17.80
2014,04,13,13,32,17.80
2014,04,13,13,33,17.80
2014,04,13,13,34,17.80
2014,04,13,13,35,17.90
2014,04,13,13,36,17.90
2014,04,13,13,37,17.80
2014,04,13,13,38,17.80
2014,04,13,13,39,17.70
2014,04,13,13,40,17.80
2014,04,13,13,41,17.80
2014,04,13,13,42,17.90
2014,04,13,13,43,17.90
2014,04,13,13,44,18.00
2014,04,13,13,45,18.00
2014,04,13,13,46,18.10
2014,04,13,13,47,18.20
2014,04,13,13,48,18.30
2014,04,13,13,49,18.30
2014,04,13,13,50,18.30
2014,04,13,13,51,18.30
2014,04,13,13,52,18.30
2014,04,13,13,53,18.40
2014,04,13,13,54,18.50
2014,04,13,13,55,18.50
2014,04,13,13,56,18.60
2014,04,13,13,57,18.70
2014,04,13,13,58,18.70
2014,04,13,13,59,18.70
2014,04,13,14,00,18.70
2014,04,13,14,01,18.70
2014,04,13,14,02,18.70
2014,04,13,14,03,18.70
2014,04,13,14,04,18.70
2014,04,13,14,05,18.60
2014,04,13,14,06,18.60
2014,04,13,14,07,18.50
2014,04,13,14,08,18.50
2014,04,13,14,09,18.50
2014,04,13,14,10,18.60
2014,04,13,14,11,18.70
2014,04,13,14,12,18.80
2014,04,13,14,13,18.80
2014,04,13,14,14,18.80
2014,04,13,14,15,18.80
2014,04,13,14,16,18.80
2014,04,13,14,17,18.80
2014,04,13,14,18,18.90
2014,04,13,14,19,18.90
2014,04,13,14,20,19.00
2014,04,13,14,21,19.10
2014,04,13,14,22,19.20
2014,04,13,14,23,19.20
2014,04,13,14,24,19.20
2014,04,13,14,25,19.20
2014,04,13,14,26,19.20
2014,04,13,14,27,19.10
2014,04,13,14,28,19.10
2014,04,13,14,29,19.10
2014,04,13,14,30,19.10
2014,04,13,14,31,19.20
2014,04,13,14,32,19.20
2014,04,13,14,33,19.30
2014,04,13,14,34,19.40
2014,04,13,14,35,19.50
2014,04,13,14,36,19.50
2014,04,13,14,37,19.50
2014,04,13,14,38,19.40
2014,04,13,14,39,19.40
2014,04,13,14,40,19.30
2014,04,13,14,41,19.30
2014,04,13,14,42,19.30
2014,04,13,14,43,19.30
2014,04,13,14,44,19.40
2014,04,13,14,45,19.40
2014,04,13,14,46,19.40
2014,04,13,14,47,19.40
2014,04,13,14,48,19.40
2014,04,13,14,49,19.50
2014,04,13,14,50,19.50
2014,04,13,14,51,19.60
2014,04,13,14,52,19.60
2014,04,13,14,53,19.70
2014,04,13,14,54,19.70
2014,04,13,14,55,19.70
2014,04,13,14,56,19.70
2014,04,13,14,57,19.70
2014,04,13,14,58,19.80
2014,04,13,14,59,19.80
2014,04,13,15,00,19.80
2014,04,13,15,01,19.70
2014,04,13,15,02,19.70
2014,04,13,15,03,19.60
2014,04,13,15,04,19.70
2014,04,13,15,05,19.70
2014,04,13,15,06,19.80
2014,04,13,15,07,19.80
2014,04,13,15,08,19.80
2014,04,13,15,09,19.80
2014,04,13,15,10,19.80
2014,04,13,15,11,19.80
2014,04,13,15,12,19.80
2014,04,13,15,13,19.80
2014,04,13,15,14,19.90
2014,04,13,15,15,19.90
2014,04,13,15,16,19.90
2014,04,13,15,17,19.80
2014,04,13,15,18,19.80
2014,04,13,15,19,19.70
2014,04,13,15,20,19.70
2014,04,13,15,21,19.70
2014,04,13,15,22,19.70
2014,04,13,15,23,19.70
2014,04,13,15,24,19.70
2014,04,13,15,25,19.80
2014,04,13,15,26,19.80
2014,04,13,15,27,19.80
2014,04,13,15,28,19.80
2014,04,13,15,29,19.80
2014,04,13,15,30,19.80
2014,04,13,15,31,19.80
2014,04,13,15,32,19.80
2014,04,13,15,33,19.70
2014,04,13,15,34,19.80
2014,04,13,15,35,19.80
2014,04,13,15,36,19.80
2014,04,13,15,37,19.80
2014,04,13,15,38,19.80
2014,04,13,15,39,19.80
2014,04,13,15,40,19.80
2014,04,13,15,41,19.80
2014,04,13,15,42,19.70
2014,04,13,15,43,19.70
2014,04,13,15,44,19.70
2014,04,13,15,45,19.70
2014,04,13,15,46,19.70
2014,04,13,15,47,19.80
2014,04,13,15,48,19.90
2014,04,13,15,49,20.00
2014,04,13,15,50,20.00
2014,04,13,15,51,20.10
2014,04,13,15,52,20.10
2014,04,13,15,53,20.00
2014,04,13,15,54,20.00
2014,04,13,15,55,19.90
2014,04,13,15,56,19.80
2014,04,13,15,57,19.80
2014,04,13,15,58,19.70
2014,04,13,15,59,19.70
2014,04,13,16,00,19.70
2014,04,13,16,01,19.70
2014,04,13,16,02,19.70
2014,04,13,16,03,19.60
2014,04,13,16,04,19.60
2014,04,13,16,05,19.70
2014,04,13,16,06,19.70
2014,04,13,16,07,19.80
2014,04,13,16,08,19.70
2014,04,13,16,09,19.70
2014,04,13,16,10,19.70
2014,04,13,16,11,19.70
2014,04,13,16,12,19.70
2014,04,13,16,13,19.70
2014,04,13,16,14,19.70
2014,04,13,16,15,19.60
2014,04,13,16,16,19.60
2014,04,13,16,17,19.60
2014,04,13,16,18,19.60
2014,04,13,16,19,19.70
2014,04,13,16,20,19.80
2014,04,13,16,21,19.80
2014,04,13,16,22,19.80
2014,04,13,16,23,19.80
2014,04,13,16,24,19.70
2014,04,13,16,25,19.70
2014,04,13,16,26,19.80
2014,04,13,16,27,19.80
2014,04,13,16,28,19.70
2014,04,13,16,29,19.70
2014,04,13,16,30,19.70
2014,04,13,16,31,19.70
2014,04,13,16,32,19.70
2014,04,13,16,33,19.70
2014,04,13,16,34,19.60
2014,04,13,16,35,19.60
2014,04,13,16,36,19.60
2014,04,13,16,37,19.60
2014,04,13,16,38,19.60
2014,04,13,16,39,19.70
2014,04,13,16,40,19.70
2014,04,13,16,41,19.80
2014,04,13,16,42,19.80
2014,04,13,16,43,19.80
2014,04,13,16,44,19.80
2014,04,13,16,45,19.80
2014,04,13,16,46,19.80
2014,04,13,16,47,19.70
2014,04,13,16,48,19.70
2014,04,13,16,49,19.60
2014,04,13,16,50,19.60
2014,04,13,16,51,19.60
2014,04,13,16,52,19.50
2014,04,13,16,53,19.60
2014,04,13,16,54,19.50
2014,04,13,16,55,19.50
2014,04,13,16,56,19.50
2014,04,13,16,57,19.60
2014,04,13,16,58,19.70
2014,04,13,16,59,19.70
2014,04,13,17,00,19.70
2014,04,13,17,01,19.70
2014,04,13,17,02,19.70
2014,04,13,17,03,19.70
2014,04,13,17,04,19.70
2014,04,13,17,05,19.70
2014,04,13,17,06,19.70
2014,04,13,17,07,19.70
2014,04,13,17,08,19.60
2014,04,13,17,09,19.60
2014,04,13,17,10,19.60
2014,04,13,17,11,19.60
2014,04,13,17,12,19.50
2014,04,13,17,13,19.50
2014,04,13,17,14,19.50
2014,04,13,17,15,19.50
2014,04,13,17,16,19.50
2014,04,13,17,17,19.50
2014,04,13,17,18,19.50
2014,04,13,17,19,19.50
2014,04,13,17,20,19.40
2014,04,13,17,21,19.40
2014,04,13,17,22,19.40
2014,04,13,17,23,19.40
2014,04,13,17,24,19.40
2014,04,13,17,25,19.40
2014,04,13,17,26,19.40
2014,04,13,17,27,19.40
2014,04,13,17,28,19.40
2014,04,13,17,29,19.40
2014,04,13,17,30,19.40
2014,04,13,17,31,19.50
2014,04,13,17,32,19.50
2014,04,13,17,33,19.40
2014,04,13,17,34,19.40
2014,04,13,17,35,19.40
2014,04,13,17,36,19.40
2014,04,13,17,37,19.40
2014,04,13,17,38,19.40
2014,04,13,17,39,19.40
2014,04,13,17,40,19.40
2014,04,13,17,41,19.30
2014,04,13,17,42,19.30
2014,04,13,17,43,19.30
2014,04,13,17,44,19.30
2014,04,13,17,45,19.30
2014,04,13,17,46,19.30
2014,04,13,17,47,19.40
2014,04,13,17,48,19.40
2014,04,13,17,49,19.50